星链-36648(STARLINK-36648)

导读

STARLINK-36648是美国太空探索技术公司星链(Starlink)星座的一颗卫星,于2026年2月16日发射升空。星链星座旨在构建全球卫星互联网网络,为全球偏远地区、海洋和航空等场景提供高速宽带接入服务,该卫星入轨将进一步扩充星链星座的卫星规模,提升星座覆盖能力与服务容量。

Basic Information
目录编号:
67825
目录名称:
STARLINK-36648
国际标识:
2026-033E
轨道中心:
EARTH
卫星名称:
星链-36648
卫星全名:
星链-36648(STARLINK-36648)
卫星状态:
在轨 (已飞行207 天)
发射日期:
2026-02-16 UTC
国别 :
美国 (US)
星等 :
--
This satellite is enrolled in the Space Conjunction Data Service (SCDS) and the current flight risk assessment level is: High Risk
Orbit Information
数据来源 国际轨道数据 AOE轨道数据
星历时间 2026-09-11T11:51:42+0800
14小时前
查看轨道信息
2026-09-10T06:00:00+0800
1天前
查看轨道信息
半长轴 6861.174km 6861.255km
偏心率 0.0001108 0.0000477
轨道倾角 43.000° 43.000°
近地点辐角 269.158° 269.109°
升交点赤经 299.237° 306.263°
平近点角 90.915° 80.522°
近地点 482.276km 482.79km
远地点 483.798km 483.446km
周期 94.266分钟 94.268分钟
每日圈数 15.275842 15.275571
Detailed Information
固有亮度:
5
最大亮度:
2.5
卫星平台:
Starlink V1.0
覆盖范围:
全球
运营商:
太空探索技术公司
运营商所在国:
美国
制造商(研发单位):
太空探索技术公司
制造商所在国:
美国
使用方式:
暂无
Satellite Introduction
Starlink 计划是 SpaceX 推出的全球卫星互联网项目,通过发射低轨道卫星,为全球尤其是偏远地区提供高速、低延迟的互联网服务。自 2019 年起,Starlink 已部署数千颗卫星,旨在缩小全球数字鸿沟,推动互联网普及。该项目还为军事、航空等行业提供通信支持,带来广泛经济效益。
2D Orbit Map
3D Orbit Map
Orbit Altitude Analysis Chart
Orbit Inclination Analysis Chart
Orbit Comprehensive Analysis Chart
View Comprehensive Chart
Conjunction Data List
Event ID Objects TCA Miss Dist (km) Collision Risk Probability Collision Risk Index (CRI) Action
CDM_260913-130105-941406-782521
2026-09-13T
13:01:40+0000
0.219 km
中距离
6.348491E-4 高风险 0.91
CDM_260913-001706-731906-782521
2026-09-13T
00:17:17+0000
0.439 km
远距离
1.494714E-4 高风险 0.78
CDM_260912-231306-711606-782521
2026-09-12T
23:13:52+0000
0.622 km
远距离
7.93216E-5 中风险 0.73
CDM_260912-092206-731906-782522
2026-09-12T
09:22:53+0000
0.564 km
远距离
7.917873E-5 中风险 0.73
CDM_260913-235105-948706-782521
2026-09-13T
23:51:13+0000
0.707 km
远距离
4.633958E-5 中风险 0.68
CDM_260912-105706-731906-782522
2026-09-12T
10:57:02+0000
0.877 km
远距离
2.014429E-5 中风险 0.61
CDM_260912-213906-711606-782521
2026-09-12T
21:39:43+0000
1.044 km
极远距离
1.49447E-5 中风险 0.58
CDM_260912-222605-880706-782521
2026-09-12T
22:26:24+0000
1.061 km
极远距离
1.440468E-5 中风险 0.58
CDM_260914-082905-948706-782521
2026-09-14T
08:29:04+0000
1.131 km
极远距离
9.59922E-6 低风险 0.55
CDM_260912-224306-731906-782521
2026-09-12T
22:43:08+0000
1.276 km
极远距离
5.5746E-6 低风险 0.5
Miss Distance Evolution Trend with All Objects
Collision Probability Evolution Trend with All Objects